Location: Albany
(35.0170°S, 117.8920°E)
Time: 01:17:50
(UTC+08:00)

A-11 Canister half - Pass Details

Date: 26 January 2021
Orbit: 1525 x 1684 km, 47.3° (Epoch: 01 March)

Event Time Altitude Azimuth Distance (km) Brightness Sun altitude
Rises 22:31:32 0° 11° (NNE) 4,909 - -30.5°
Reaches altitude 10° 22:37:37 10° 39° (NE) 3,942 - -31.1°
Maximum altitude 22:41:02 12° 59° (ENE) 3,775 - -31.4°
Drops below altitude 10° 22:44:27 10° 79° (E) 3,950 - -31.7°
Exits shadow 22:47:41 - 95° (E) 4,393 11.2 -32.0°
Sets 22:50:28 0° 106° (ESE) 4,932 11.6 -32.3°
